Wetterdaten: aktuell Freitag, 21.09.2018 12:00
Datum Zeit Temp. A. Auen 2 Feuchte A. Luftdruck Regen Wind Richtung Richtung Sonnenschein T Regen Solar Taupunkt Windchill Windben Empfang
21.09.2018 12:00 23,8 C 26,7 C 56 % 1011,3 hPa 0,0 l/m 12,5 km/h (3 Bft) SW 216 1 min 0 min 622 W/m 14,5 C 22,3 C 17,7 km/h (3 Bft) 96 %
21.09.2018 11:59 23,8 C 26,7 C 56 % 1011,3 hPa 0,0 l/m 7,4 km/h (2 Bft) W-SW 237 1 min 0 min 625 W/m 14,5 C 23,5 C 11,3 km/h (2 Bft) 100 %
21.09.2018 11:58 23,8 C 26,7 C 56 % 1011,4 hPa 0,0 l/m 13,9 km/h (3 Bft) W 264 1 min 0 min 627 W/m 14,5 C 22,0 C 19,3 km/h (3 Bft) 96 %
21.09.2018 11:57 23,7 C 26,7 C 56 % 1011,4 hPa 0,0 l/m 12,4 km/h (3 Bft) W-SW 239 1 min 0 min 620 W/m 14,4 C 22,2 C 20,9 km/h (4 Bft) 96 %
21.09.2018 11:56 23,7 C 26,7 C 57 % 1011,5 hPa 0,0 l/m 14,6 km/h (3 Bft) S-SW 207 1 min 0 min 624 W/m 14,7 C 21,8 C 25,7 km/h (4 Bft) 100 %
21.09.2018 11:55 23,6 C 26,7 C 57 % 1011,4 hPa 0,0 l/m 8,8 km/h (2 Bft) S-SO 155 1 min 0 min 595 W/m 14,6 C 22,9 C 14,5 km/h (3 Bft) 96 %
21.09.2018 11:54 23,6 C 26,7 C 57 % 1011,4 hPa 0,0 l/m 9,1 km/h (2 Bft) SW 224 1 min 0 min 603 W/m 14,6 C 22,8 C 16,1 km/h (3 Bft) 100 %
21.09.2018 11:53 23,6 C 26,7 C 57 % 1011,5 hPa 0,0 l/m 9,3 km/h (2 Bft) W 262 1 min 0 min 592 W/m 14,6 C 22,8 C 12,9 km/h (3 Bft) 96 %
21.09.2018 11:52 23,5 C 26,7 C 56 % 1011,4 hPa 0,0 l/m 8,9 km/h (2 Bft) W-SW 243 1 min 0 min 610 W/m 14,2 C 22,8 C 11,3 km/h (2 Bft) 100 %
21.09.2018 11:51 23,5 C 26,7 C 57 % 1011,5 hPa 0,0 l/m 10,1 km/h (2 Bft) W-NW 283 1 min 0 min 641 W/m 14,5 C 22,5 C 17,7 km/h (3 Bft) 96 %
21.09.2018 11:50 23,4 C 26,7 C 57 % 1011,4 hPa 0,0 l/m 12,9 km/h (3 Bft) W 269 1 min 0 min 634 W/m 14,4 C 21,8 C 17,7 km/h (3 Bft) 100 %
21.09.2018 11:49 23,4 C 26,7 C 57 % 1011,4 hPa 0,0 l/m 9,9 km/h (2 Bft) W 260 1 min 0 min 625 W/m 14,4 C 22,4 C 16,1 km/h (3 Bft) 96 %
21.09.2018 11:48 23,4 C 26,7 C 58 % 1011,5 hPa 0,0 l/m 14,0 km/h (3 Bft) W-SW 251 1 min 0 min 631 W/m 14,7 C 21,5 C 19,3 km/h (3 Bft) 100 %
21.09.2018 11:47 23,3 C 26,7 C 58 % 1011,5 hPa 0,0 l/m 8,5 km/h (2 Bft) W-NW 288 1 min 0 min 632 W/m 14,6 C 22,7 C 12,9 km/h (3 Bft) 100 %
21.09.2018 11:46 23,3 C 26,7 C 58 % 1011,5 hPa 0,0 l/m 8,2 km/h (2 Bft) W-SW 240 1 min 0 min 615 W/m 14,6 C 22,8 C 11,3 km/h (2 Bft) 100 %
21.09.2018 11:45 23,2 C 26,7 C 58 % 1011,5 hPa 0,0 l/m 12,0 km/h (2 Bft) SW 218 1 min 0 min 622 W/m 14,5 C 21,7 C 17,7 km/h (3 Bft) 100 %
21.09.2018 11:44 23,2 C 26,7 C 59 % 1011,5 hPa 0,0 l/m 9,1 km/h (2 Bft) SW 234 1 min 0 min 617 W/m 14,7 C 22,4 C 12,9 km/h (3 Bft) 100 %
21.09.2018 11:43 23,1 C 26,7 C 59 % 1011,6 hPa 0,0 l/m 10,8 km/h (2 Bft) W-SW 240 1 min 0 min 601 W/m 14,6 C 21,9 C 16,1 km/h (3 Bft) 100 %
21.09.2018 11:42 23,1 C 26,7 C 59 % 1011,6 hPa 0,0 l/m 10,9 km/h (2 Bft) SW 216 1 min 0 min 632 W/m 14,6 C 21,8 C 22,5 km/h (4 Bft) 100 %
21.09.2018 11:41 23,0 C 26,7 C 59 % 1011,6 hPa 0,0 l/m 15,5 km/h (3 Bft) SW 227 1 min 0 min 624 W/m 14,5 C 20,8 C 25,7 km/h (4 Bft) 100 %
21.09.2018 11:40 22,9 C 26,7 C 60 % 1011,6 hPa 0,0 l/m 11,6 km/h (2 Bft) SW 225 1 min 0 min 520 W/m 14,7 C 21,5 C 17,7 km/h (3 Bft) 96 %
21.09.2018 11:39 22,9 C 26,7 C 60 % 1011,6 hPa 0,0 l/m 8,0 km/h (2 Bft) S-SW 204 1 min 0 min 580 W/m 14,7 C 22,4 C 16,1 km/h (3 Bft) 100 %
21.09.2018 11:38 22,9 C 26,7 C 62 % 1011,6 hPa 0,0 l/m 8,6 km/h (2 Bft) S 180 1 min 0 min 580 W/m 15,2 C 22,2 C 14,5 km/h (3 Bft) 100 %
21.09.2018 11:37 22,8 C 26,7 C 61 % 1011,6 hPa 0,0 l/m 5,0 km/h (1 Bft) W-SW 242 1 min 0 min 541 W/m 14,9 C 22,8 C 8,0 km/h (2 Bft) 100 %
21.09.2018 11:36 22,8 C 26,7 C 62 % 1011,7 hPa 0,0 l/m 6,8 km/h (2 Bft) SW 227 1 min 0 min 446 W/m 15,1 C 22,7 C 8,0 km/h (2 Bft) 100 %
21.09.2018 11:35 22,7 C 26,7 C 62 % 1011,7 hPa 0,0 l/m 4,3 km/h (1 Bft) SW 221 1 min 0 min 386 W/m 15,0 C 22,7 C 8,0 km/h (2 Bft) 100 %
21.09.2018 11:34 22,7 C 26,7 C 62 % 1011,7 hPa 0,0 l/m 5,8 km/h (2 Bft) W 263 0 min 0 min 327 W/m 15,0 C 22,7 C 8,0 km/h (2 Bft) 96 %
21.09.2018 11:33 22,6 C 26,7 C 62 % 1011,8 hPa 0,0 l/m 7,2 km/h (2 Bft) SW 227 1 min 0 min 335 W/m 14,9 C 22,3 C 9,7 km/h (2 Bft) 96 %
21.09.2018 11:32 22,5 C 26,7 C 63 % 1011,7 hPa 0,0 l/m 9,1 km/h (2 Bft) W 260 1 min 0 min 360 W/m 15,1 C 21,6 C 14,5 km/h (3 Bft) 96 %
21.09.2018 11:31 22,4 C 26,7 C 62 % 1011,7 hPa 0,0 l/m 5,6 km/h (1 Bft) W-SW 237 1 min 0 min 407 W/m 14,8 C 22,4 C 8,0 km/h (2 Bft) 79 %
21.09.2018 11:30 22,3 C 26,7 C 63 % 1011,8 hPa 0,0 l/m 8,2 km/h (2 Bft) SW 218 1 min 0 min 404 W/m 14,9 C 21,7 C 11,3 km/h (2 Bft) 91 %
21.09.2018 11:29 22,3 C 26,7 C 63 % 1011,6 hPa 0,0 l/m 6,7 km/h (2 Bft) SW 214 1 min 0 min 437 W/m 14,9 C 22,2 C 9,7 km/h (2 Bft) 100 %
21.09.2018 11:28 22,2 C 26,7 C 64 % 1011,6 hPa 0,0 l/m 4,3 km/h (1 Bft) W-NW 282 1 min 0 min 472 W/m 15,1 C 22,2 C 6,4 km/h (2 Bft) 100 %
21.09.2018 11:27 22,1 C 26,7 C 64 % 1011,7 hPa 0,0 l/m 5,0 km/h (1 Bft) SW 216 1 min 0 min 465 W/m 15,0 C 22,1 C 8,0 km/h (2 Bft) 100 %
21.09.2018 11:26 22,1 C 26,7 C 65 % 1011,7 hPa 0,0 l/m 6,0 km/h (2 Bft) W-SW 242 1 min 0 min 383 W/m 15,2 C 22,1 C 8,0 km/h (2 Bft) 100 %
21.09.2018 11:25 21,9 C 26,7 C 65 % 1011,7 hPa 0,0 l/m 3,8 km/h (1 Bft) W-SW 255 1 min 0 min 455 W/m 15,0 C 21,9 C 6,4 km/h (2 Bft) 100 %
21.09.2018 11:24 21,9 C 26,7 C 66 % 1011,7 hPa 0,0 l/m 6,0 km/h (2 Bft) S 169 1 min 0 min 513 W/m 15,3 C 21,9 C 9,7 km/h (2 Bft) 100 %
21.09.2018 11:23 21,8 C 26,7 C 66 % 1011,6 hPa 0,0 l/m 5,5 km/h (1 Bft) S 185 1 min 0 min 418 W/m 15,2 C 21,8 C 11,3 km/h (2 Bft) 100 %
21.09.2018 11:22 21,7 C 26,7 C 67 % 1011,8 hPa 0,0 l/m 7,2 km/h (2 Bft) SW 226 1 min 0 min 349 W/m 15,3 C 21,4 C 11,3 km/h (2 Bft) 91 %
21.09.2018 11:21 21,6 C 26,7 C 67 % 1011,7 hPa 0,0 l/m 3,8 km/h (1 Bft) W 266 1 min 0 min 376 W/m 15,2 C 21,6 C 8,0 km/h (2 Bft) 100 %
21.09.2018 11:20 21,5 C 26,7 C 68 % 1011,6 hPa 0,0 l/m 5,0 km/h (1 Bft) W-SW 252 1 min 0 min 363 W/m 15,3 C 21,5 C 8,0 km/h (2 Bft) 96 %
21.09.2018 11:19 21,4 C 26,7 C 68 % 1011,7 hPa 0,0 l/m 2,2 km/h (1 Bft) S-SW 208 1 min 0 min 327 W/m 15,2 C 21,4 C 6,4 km/h (2 Bft) 100 %
21.09.2018 11:18 21,4 C 26,7 C 68 % 1011,8 hPa 0,0 l/m 2,1 km/h (1 Bft) O 99 0 min 0 min 305 W/m 15,2 C 21,4 C 3,2 km/h (1 Bft) 100 %
21.09.2018 11:17 21,3 C 26,7 C 69 % 1011,7 hPa 0,0 l/m 4,5 km/h (1 Bft) O 97 0 min 0 min 269 W/m 15,4 C 21,3 C 8,0 km/h (2 Bft) 100 %
21.09.2018 11:16 21,2 C 26,7 C 69 % 1011,8 hPa 0,0 l/m 4,1 km/h (1 Bft) S-SO 166 0 min 0 min 265 W/m 15,3 C 21,2 C 8,0 km/h (2 Bft) 100 %
21.09.2018 11:15 21,2 C 26,7 C 70 % 1011,8 hPa 0,0 l/m 5,6 km/h (1 Bft) S-SO 156 0 min 0 min 263 W/m 15,5 C 21,2 C 9,7 km/h (2 Bft) 96 %
21.09.2018 11:14 21,1 C 26,7 C 70 % 1011,7 hPa 0,0 l/m 3,7 km/h (1 Bft) O-SO 104 0 min 0 min 267 W/m 15,4 C 21,1 C 4,8 km/h (1 Bft) 100 %
21.09.2018 11:13 21,1 C 26,7 C 70 % 1011,6 hPa 0,0 l/m 2,3 km/h (1 Bft) O-NO 70 0 min 0 min 276 W/m 15,4 C 21,1 C 4,8 km/h (1 Bft) 100 %
21.09.2018 11:12 20,9 C 26,7 C 70 % 1011,6 hPa 0,0 l/m 2,8 km/h (1 Bft) W 266 0 min 0 min 277 W/m 15,2 C 20,9 C 8,0 km/h (2 Bft) 100 %
21.09.2018 11:11 20,9 C 26,7 C 70 % 1011,8 hPa 0,0 l/m 2,0 km/h (1 Bft) S-SW 197 0 min 0 min 291 W/m 15,2 C 20,9 C 3,2 km/h (1 Bft) 100 %
21.09.2018 11:10 20,8 C 26,7 C 71 % 1011,8 hPa 0,0 l/m 2,6 km/h (1 Bft) O-SO 102 0 min 0 min 312 W/m 15,3 C 20,8 C 6,4 km/h (2 Bft) 96 %
21.09.2018 11:09 20,7 C 26,7 C 71 % 1011,8 hPa 0,0 l/m 2,5 km/h (1 Bft) O 88 0 min 0 min 311 W/m 15,2 C 20,7 C 6,4 km/h (2 Bft) 100 %
21.09.2018 11:08 20,6 C 26,7 C 72 % 1011,9 hPa 0,0 l/m 0,4 km/h (0 Bft) S-SW 202 1 min 0 min 318 W/m 15,4 C 20,6 C 1,6 km/h (1 Bft) 96 %
21.09.2018 11:07 20,5 C 26,7 C 73 % 1011,9 hPa 0,0 l/m 2,9 km/h (1 Bft) S-SW 196 1 min 0 min 341 W/m 15,5 C 20,5 C 6,4 km/h (2 Bft) 96 %
21.09.2018 11:06 20,4 C 26,7 C 72 % 1011,9 hPa 0,0 l/m 2,5 km/h (1 Bft) S 175 1 min 0 min 492 W/m 15,2 C 20,4 C 8,0 km/h (2 Bft) 96 %
21.09.2018 11:05 20,3 C 26,7 C 72 % 1012,0 hPa 0,0 l/m 1,9 km/h (1 Bft) W-SW 258 1 min 0 min 407 W/m 15,1 C 20,3 C 3,2 km/h (1 Bft) 96 %
21.09.2018 11:04 20,3 C 26,7 C 74 % 1011,9 hPa 0,0 l/m 2,4 km/h (1 Bft) S-SO 156 1 min 0 min 481 W/m 15,5 C 20,3 C 4,8 km/h (1 Bft) 100 %
21.09.2018 11:03 20,2 C 26,7 C 75 % 1011,9 hPa 0,0 l/m 3,0 km/h (1 Bft) W-SW 243 1 min 0 min 494 W/m 15,6 C 20,2 C 6,4 km/h (2 Bft) 91 %
21.09.2018 11:02 20,1 C 26,7 C 75 % 1011,9 hPa 0,0 l/m 2,7 km/h (1 Bft) NW 320 1 min 0 min 458 W/m 15,5 C 20,1 C 6,4 km/h (2 Bft) 92 %
21.09.2018 11:01 20,0 C 26,7 C 75 % 1011,9 hPa 0,0 l/m 3,8 km/h (1 Bft) S-SO 163 1 min 0 min 522 W/m 15,4 C 20,0 C 9,7 km/h (2 Bft) 96 %
21.09.2018 11:00 19,9 C 26,7 C 75 % 1012,0 hPa 0,0 l/m 3,4 km/h (1 Bft) W-NW 287 1 min 0 min 529 W/m 15,3 C 19,9 C 8,0 km/h (2 Bft) 96 %
_ Min-Zeit 07:23 13:00 16:55 11:59 - 19:05 - - - - - 07:23 07:23 19:05 18:19
Minimum _ 11,1 C 18,9 C 42 % 1011,3 hPa - 0,0 km/h (0 Bft) - - - - - 9,4 C 11,1 C 0,0 km/h (0 Bft) 79 %
_ Max-Zeit 15:52 17:51 08:17 13:01 13:00 11:41 - - 13:00 13:00 10:48 11:03 15:52 11:41 13:02
Maximum _ 27,1 C 29,4 C 91 % 1019,1 hPa 0,0 l/m 15,5 km/h
SW (3 Bft)
- - 1 min 0 min 671 W/m 15,6 C 27,1 C 25,7 km/h
SW (4 Bft)
100 %
Durchschnitt _ 18,9 C 24,7 C 70 % 1015,3 hPa #0,0 l/m 2,6 km/h (1 Bft) S - #4:31 h #0 min. 127 W/m 12,7 C 18,9 C 4,3 km/h (1 Bft) 98 %